Regional Weather Roundup
Issued by NWS Albany, NY

Home | Current Version | Previous Version | Graphics & Text | Print | Product List | Glossary On
Versions: 1 2 3 4 5 6 7 8 9 10 11 12 13 14 15 16 17 18 19 20 21 22 23 24 25 26 27 28 29 30 31 32 33 34 35 36 37 38 39 40 41 42 43 44 45 46 47 48 49 50
000
ASUS41 KALY 211910
RWRALY

NEW YORK STATE HOURLY WEATHER ROUNDUP
NATIONAL WEATHER SERVICE ALBANY NY
300 PM EDT MON JUL 21 2014

NOTE: "FAIR" INDICATES FEW OR NO CLOUDS BELOW 12,000 FEET WITH NO
SIGNIFICANT WEATHER AND/OR NO OBSTRUCTIONS TO VISIBILITY.

NYZ032-033-038>043-046>054-057>066-NYZ062>081-212000-
EAST


CITY           SKY/WX    TMP DP  RH WIND       PRES   REMARKS
ALBANY         MOSUNNY   82  63  52 S8        30.14F
GLENS FALLS    SUNNY     81  63  54 SE6       30.13F
POUGHKEEPSIE   MOSUNNY   84  61  45 VRB3      30.14F
NEWBURGH       MOSUNNY   81  64  57 W9        30.17F
MONTGOMERY     SUNNY     82  61  48 SW7       30.15F
WHITE PLAINS   MOSUNNY   81  62  52 SE5       30.16F
ISLIP          MOSUNNY   84  58  40 NE9       30.15F
NEW YORK CITY  MOSUNNY   82  59  45 VRB5      30.15F
CENTRAL PARK   SUNNY     83  58  42 NE3       30.18F
$$

NYZ005>009-017-018-044>046-055-056-212000-
CENTRAL


CITY           SKY/WX    TMP DP  RH WIND       PRES   REMARKS
FULTON         MOSUNNY   82  64  54 CALM      30.11F
SYRACUSE       PTSUNNY   86  63  45 SW8       30.11F
ROME           MOSUNNY   83  65  54 S10       30.13F
ELMIRA         PTSUNNY   84  65  52 W8        30.14F
BINGHAMTON     MOSUNNY   78  62  57 SW7       30.18F
MONTICELLO     MOSUNNY   79  61  53 CALM      30.21F
$$

NYZ026>034-041>043-212000-
NORTH


CITY           SKY/WX    TMP DP  RH WIND       PRES   REMARKS
WATERTOWN      SUNNY     82  65  56 W12       30.11F
FORT DRUM      NOT AVBL
MASSENA        PTSUNNY   83  67  58 SW7       30.10F
SARANAC LAKE   CLOUDY    74  59  59 SW8       30.16S
PLATTSBURGH    MOSUNNY   82  58  43 SE10      30.10F
$$

NYZ001>004-010>016-019>021-212000-
WEST


CITY           SKY/WX    TMP DP  RH WIND       PRES   REMARKS
NIAGARA FALLS  MOSUNNY   81  67  62 VRB5      30.12S
BUFFALO        MOSUNNY   82  60  47 SW7       30.13S
DUNKIRK        SUNNY     77  66  68 NW9       30.14S
JAMESTOWN      SUNNY     79  63  57 SW6       30.17S
WELLSVILLE     PTSUNNY   80  63  55 VRB5      30.20F
ROCHESTER      PTSUNNY   81  66  60 N7        30.12F
PENN YAN       PTSUNNY   81  65  58 SW9       30.14F
$$

             KEY
       WCI = WIND CHILL INDEX
       VSB = VISIBILITY
       HX  = HEAT INDEX
$$


USA.gov is the U.S. government's official web portal to all federal, state and local government web resources and services.